Regional Weather Roundup
Issued by NWS

Home | Current Version | Previous Version | Text Only | Print | Product List | Glossary On
Versions: 1 2 3 4 5 6 7 8 9 10 11 12 13 14 15 16 17 18 19 20 21 22 23 24 25 26 27 28 29 30 31 32 33 34 35 36 37 38 39 40 41 42 43 44 45 46 47 48 49 50
000
ASUS43 KOAX 010410
RWRNE

WEATHER ROUNDUP FOR NEBRASKA
NATIONAL WEATHER SERVICE OMAHA NE
1100 PM CDT THU JUL 31 2014

NOTES: SATELLITE DATA IS BEING USED TO AUGMENT CLOUD COVER ABOVE
       12000 FEET.
       "FAIR" INDICATES FEW OR NO CLOUDS BELOW 12,000 FEET WITH NO
       SIGNIFICANT WEATHER AND/OR OBSTRUCTIONS TO VISIBILITY.

  * THESE STATIONS DO NOT REPORT WEATHER SUCH AS RAIN...SNOW OR FOG.

NEZ001>004-019>022-054>056-010500-
NEBRASKA PANHANDLE

CITY           SKY/WX    TMP DP  RH WIND       PRES   REMARKS
SCOTTSBLUFF    PTCLDY    68  49  50 SE7       30.19R
ALLIANCE       CLEAR     63  46  54 E5        30.18R
CHADRON        PTCLDY    67  49  52 CALM      30.14R
KIMBALL        PTCLDY    64  47  53 SE7       30.23R
SIDNEY         CLEAR     64  41  42 NE8       30.22R
$$

NEZ057>060-069>072-079>082-010500-
SOUTHWEST NEBRASKA

CITY           SKY/WX    TMP DP  RH WIND       PRES   REMARKS
NORTH PLATTE   CLEAR     64  53  67 E3        30.11R
IMPERIAL       CLEAR     67  59  75 E3        30.15R
LEXINGTON      CLEAR     67  57  71 NE6       30.09R
MCCOOK         CLEAR     71  57  61 NE5       30.10R
OGALLALA       CLEAR     62  52  69 SE5       30.15R
$$

NEZ005>010-023>029-035>040-094-010500-
NORTH CENTRAL NEBRASKA

CITY           SKY/WX    TMP DP  RH WIND       PRES   REMARKS
VALENTINE      CLEAR     71  53  52 NE7       30.10R
AINSWORTH      CLEAR     66  59  78 SE6       30.10R
BROKEN BOW     CLEAR     64  59  83 CALM      30.10R
O`NEILL        CLEAR     69  63  80 SE6       30.09R
ORD            CLEAR     66  60  81 CALM      30.07R
THEDFORD       CLEAR     70  53  54 CALM      30.13R
$$

NEZ041-046>049-061>064-073>077-083>087-010500-
SOUTH CENTRAL NEBRASKA

CITY           SKY/WX    TMP DP  RH WIND       PRES   REMARKS
GRAND ISLAND   CLEAR     68  64  87 N8        30.05R
AURORA         CLEAR     67  65  91 N7        30.02S
HASTINGS       CLEAR     66  59  78 NW6       30.04R
HEBRON         PTCLDY    72  50  44 S8        30.02R
HOLDREGE       CLEAR     67  58  73 CALM      30.07R
KEARNEY *      CLEAR     66  57  72 N7        30.07R
YORK           CLEAR     68  66  94 SE5       30.03S
$$

NEZ011>018-030>034-042>045-010500-
NORTHEAST NEBRASKA

CITY           SKY/WX    TMP DP  RH WIND       PRES   REMARKS
NORFOLK        CLEAR     67  61  81 E3        30.06R
ALBION         CLEAR     65  60  84 CALM      30.08R
BLAIR          MOCLDY    67  60  78 E6        30.06R
COLUMBUS *     MOCLDY    64  61  88 E7        30.04S
FREMONT        MOCLDY    69  65  86 SE3       30.06R
TEKAMAH        MOCLDY    64  60  87 NW3       30.05R
WAYNE          PTCLDY    63  61  94 NE3       30.07R
$$

NEZ050>053-065>068-078-088>093-010500-
SOUTHEAST NEBRASKA

CITY           SKY/WX    TMP DP  RH WIND       PRES   REMARKS
LINCOLN        PTCLDY    74  58  57 SE7       30.03R
OMAHA EPPLEY   MOCLDY    72  59  63 SE7       30.05R
BEATRICE       MOCLDY    75  54  47 S7        30.02R
FALLS CITY     PTCLDY    68  58  70 SE5       30.03S
NEBRASKA CITY  RAIN      71  59  65 CALM      30.06R
PLATTSMOUTH    LGT RAIN  68  63  83 SW7       30.07R
$$

NEZ044-045-051>053-067-010500-
OMAHA AREA

CITY           SKY/WX    TMP DP  RH WIND       PRES   REMARKS
OMAHA EPPLEY   MOCLDY    72  59  63 SE7       30.05R
BLAIR          MOCLDY    67  60  78 E6        30.06R
FREMONT        MOCLDY    69  65  86 SE3       30.06R
MILLARD        MOCLDY    73  61  66 S6        30.05S
OFFUTT AFB     MOCLDY    71  64  80 SE5       30.05R
PLATTSMOUTH    LGT RAIN  68  63  83 SW7       30.07R
WAHOO          LGT RAIN  68  62  80 NE7       30.05R
$$



USA.gov is the U.S. government's official web portal to all federal, state and local government web resources and services.